Regional Weather Roundup
Issued by NWS Little Rock, AR

Home | Current Version | Previous Version | Graphics & Text | Print | Product List | Glossary On
Versions: 1 2 3 4 5 6 7 8 9 10 11 12 13 14 15 16 17 18 19 20 21 22 23 24 25 26 27 28
000
ASUS44 KLZK 051905
RWRLZK

WEATHER ROUNDUP FOR ARKANSAS
NATIONAL WEATHER SERVICE LITTLE ROCK AR
200 PM CDT THU MAY 05 2016

NOTE: "FAIR" INDICATES FEW OR NO CLOUDS BELOW 12,000 FEET WITH NO
SIGNIFICANT WEATHER AND/OR OBSTRUCTIONS TO VISIBILITY.

ARZ001-003-010-029-052000-
NORTHWEST ARKANSAS

CITY           SKY/WX    TMP DP  RH WIND       PRES   REMARKS
FAYETTEVILLE   SUNNY     71  44  37 N12G21    30.06F
FORT SMITH     SUNNY     76  39  26 NW9       30.03F
HARRISON       SUNNY     71  37  28 N14G22    30.04F
BENTONVILLE    SUNNY     72  39  30 N12       30.07F
ROGERS         SUNNY     71  44  37 N9G18     30.07F
SILOAM SPGS    SUNNY     70  45  40 N7        30.08F
HIGHFILL       SUNNY     75  42  30 N15G22    30.06F
$$

ARZ004-005-016-052000-
NORTH CENTRAL ARKANSAS

CITY           SKY/WX    TMP DP  RH WIND       PRES   REMARKS
BATESVILLE     SUNNY     72  37  28 NW7G17    29.99F
FLIPPIN        SUNNY    N/A N/A N/A N12G20    29.99F
MTN HOME       SUNNY     70  33  25 VRB7G21   30.01F
$$

ARZ040-041-052000-
WEST CENTRAL ARKANSAS

CITY           SKY/WX    TMP DP  RH WIND       PRES   REMARKS
MENA           SUNNY     75  37  25 N10       30.04F
MOUNT IDA      SUNNY     74  38  27 VRB3      30.01F
$$

ARZ009-017-025-026-028-052000-
NORTHEAST ARKANSAS

CITY           SKY/WX    TMP DP  RH WIND       PRES   REMARKS
CORNING          N/A     72  36  26 N14G24    29.99S
JONESBORO      SUNNY     71  34  25 NW14G24   29.98S
NEWPORT        SUNNY     73  35  24 N18G25    29.99F
WALNUT RIDGE   SUNNY     70  34  26 N17       29.98F
BLYTHEVILLE    SUNNY     71  43  36 N17G26    29.97F
$$

ARZ022-023-033-042-044-052000-
CENTRAL ARKANSAS

CITY           SKY/WX    TMP DP  RH WIND       PRES   REMARKS
LITTLE ROCK    MOSUNNY   77  41  27 N8        29.99F
N LITTLE ROCK    N/A     73  41  32 N9G20     29.98F
JACKSONVILLE   SUNNY     75  42  30 NW13G20   29.98F
SEARCY         SUNNY     73  40  30 NW12G18   30.00S
HOT SPRINGS    SUNNY     76  40  27 W9        30.01F
RUSSELLVILLE   SUNNY     74  43  32 VRB7      30.00F
CLINTON        FAIR      73  39  29 NW13G20   30.01S
$$

ARZ036-052000-
EAST ARKANSAS

CITY           SKY/WX    TMP DP  RH WIND       PRES   REMARKS
WEST MEMPHIS   SUNNY     70  39  32 N10G18    29.96S
$$

ARZ050-053-066-070-073-052000-
SOUTHWEST ARKANSAS

CITY           SKY/WX    TMP DP  RH WIND       PRES   REMARKS
ARKADELPHIA    FAIR      75  46  35 N10       30.01F
CAMDEN         SUNNY     75  39  27 NW7       30.01F
TEXARKANA      SUNNY     76  45  33 NW9       30.03F
EL DORADO      SUNNY     76  43  30 N10G18    30.01F
DE QUEEN       SUNNY     76  43  30 VRB3      30.01F
$$

ARZ056-057-069-052000-
SOUTHEAST ARKANSAS

CITY           SKY/WX    TMP DP  RH WIND       PRES   REMARKS
PINE BLUFF     SUNNY     73  40  30 NW10G21   29.99F
STUTTGART      SUNNY     73  45  35 N15       29.98F
MONTICELLO     SUNNY     75  37  25 N8        29.98F

$$






USA.gov is the U.S. government's official web portal to all federal, state and local government web resources and services.